Погода в Трехсвятском

Россия / Калужская область     55°01′05″N   36°36′30″E
темп.,
°C
ветер,
м/с
пор.,
м/с
влажн.,
%
обл.,
%
осадки,
мм/ч
давл.,
гПа
погр.,
м
21 апреля, ср
ср2100:00+2св3797100 0.1 1011538
03:00+1ссв3798100 0.6 1008309
06:00+1ссз25100100 1.8 1005249
09:00+2зсз3699100 2.2 1005343
12:00+3з4788100 0.1 1006846
15:00+4зюз3889100 0.1 1008827
18:00+5юз2688100 0.0 1009392
21:00+4ююз3791100 0.0 1011200
22 апреля, чт
чт2200:00+4ююз3792100 0.0 1012222
03:00+3ююз399618 0.0 1013270
06:00+4ююз4994100 0.0 1014441
09:00+7ююз5881100 0.0 1015710
12:00+10ююз5773100 0.0 10151039
15:00+13ю476472 0.4 10141560
18:00+12ю497226 0.7 1014800
21:00+8ююв41291100 0.9 1015353
23 апреля, пт
пт2300:00+8ю4129350 0.1 1014328
03:00+7ю4139143 0.1 1014385
06:00+7ю4138982 0.0 1015470
09:00+11ююз5107564 0.2 1015725
12:00+15ю7125761 0.3 10141913
15:00+15ю61257100 1.8 10132103
18:00+11вюв158055 0.9 1013285
21:00+8сз139231 2.1 101177
24 апреля, сб
сб2400:00+9ююв41191100 1.6 1009823
03:00+7з1597100 3.1 1007681
06:00+2з4998100 2.9 1008391
09:00+3зюз3799100 4.3 1008410
12:00+4зюз3797100 1.4 1009586
15:00+7з3671100 1.9 10081080
18:00+6з4771100 1.1 1008857
21:00+3зюз3988100 1.4 1009308
25 апреля, вс
вс2500:00+1зюз3990100 0.0 1009259
03:000зюз39945 0.0 1009266
06:000зюз499699 0.0 1010493
09:00+3зюз587678 0.0 10101023
12:00+6зюз475899 0.4 10101636
15:00+8зюз474984 1.2 10092014
18:00+5зюз466672 0.9 1010926
21:00+1ююз36805 1.0 1010106